Year,Month,Day,Hour,Minute,Value (Times are PST for temperature in C)
2009,09,21,00,00,8.50
2009,09,21,00,01,8.50
2009,09,21,00,02,8.50
2009,09,21,00,03,8.50
2009,09,21,00,04,8.50
2009,09,21,00,05,8.50
2009,09,21,00,06,8.50
2009,09,21,00,07,8.50
2009,09,21,00,08,8.50
2009,09,21,00,09,8.50
2009,09,21,00,10,8.50
2009,09,21,00,11,8.50
2009,09,21,00,12,8.50
2009,09,21,00,13,8.50
2009,09,21,00,14,8.50
2009,09,21,00,15,8.40
2009,09,21,00,16,8.40
2009,09,21,00,17,8.40
2009,09,21,00,18,8.40
2009,09,21,00,19,8.40
2009,09,21,00,20,8.40
2009,09,21,00,21,8.40
2009,09,21,00,22,8.40
2009,09,21,00,23,8.40
2009,09,21,00,24,8.40
2009,09,21,00,25,8.50
2009,09,21,00,26,8.50
2009,09,21,00,27,8.50
2009,09,21,00,28,8.50
2009,09,21,00,29,8.50
2009,09,21,00,30,8.50
2009,09,21,00,31,8.50
2009,09,21,00,32,8.50
2009,09,21,00,33,8.50
2009,09,21,00,34,8.40
2009,09,21,00,35,8.40
2009,09,21,00,36,8.40
2009,09,21,00,37,8.40
2009,09,21,00,38,8.40
2009,09,21,00,39,8.40
2009,09,21,00,40,8.40
2009,09,21,00,41,8.40
2009,09,21,00,42,8.40
2009,09,21,00,43,8.40
2009,09,21,00,44,8.40
2009,09,21,00,45,8.40
2009,09,21,00,46,8.40
2009,09,21,00,47,8.40
2009,09,21,00,48,8.40
2009,09,21,00,49,8.30
2009,09,21,00,50,8.30
2009,09,21,00,51,8.30
2009,09,21,00,52,8.20
2009,09,21,00,53,8.20
2009,09,21,00,54,8.20
2009,09,21,00,55,8.20
2009,09,21,00,56,8.20
2009,09,21,00,57,8.20
2009,09,21,00,58,8.20
2009,09,21,00,59,8.20
2009,09,21,01,00,8.20
2009,09,21,01,01,8.20
2009,09,21,01,02,8.20
2009,09,21,01,03,8.20
2009,09,21,01,04,8.20
2009,09,21,01,05,8.20
2009,09,21,01,06,8.20
2009,09,21,01,07,8.20
2009,09,21,01,08,8.20
2009,09,21,01,09,8.20
2009,09,21,01,10,8.20
2009,09,21,01,11,8.20
2009,09,21,01,12,8.20
2009,09,21,01,13,8.20
2009,09,21,01,14,8.20
2009,09,21,01,15,8.20
2009,09,21,01,16,8.20
2009,09,21,01,17,8.10
2009,09,21,01,18,8.10
2009,09,21,01,19,8.10
2009,09,21,01,20,8.10
2009,09,21,01,21,8.10
2009,09,21,01,22,8.00
2009,09,21,01,23,8.00
2009,09,21,01,24,8.00
2009,09,21,01,25,8.00
2009,09,21,01,26,8.00
2009,09,21,01,27,8.00
2009,09,21,01,28,8.00
2009,09,21,01,29,8.00
2009,09,21,01,30,8.00
2009,09,21,01,31,8.00
2009,09,21,01,32,8.00
2009,09,21,01,33,8.00
2009,09,21,01,34,8.00
2009,09,21,01,35,8.00
2009,09,21,01,36,8.00
2009,09,21,01,37,8.00
2009,09,21,01,38,8.00
2009,09,21,01,39,8.00
2009,09,21,01,40,8.00
2009,09,21,01,41,8.00
2009,09,21,01,42,7.90
2009,09,21,01,43,7.90
2009,09,21,01,44,7.90
2009,09,21,01,45,7.90
2009,09,21,01,46,7.90
2009,09,21,01,47,7.90
2009,09,21,01,48,7.90
2009,09,21,01,49,7.90
2009,09,21,01,50,7.90
2009,09,21,01,51,7.90
2009,09,21,01,52,7.90
2009,09,21,01,53,7.80
2009,09,21,01,54,7.80
2009,09,21,01,55,7.80
2009,09,21,01,56,7.80
2009,09,21,01,57,7.80
2009,09,21,01,58,7.80
2009,09,21,01,59,7.80
2009,09,21,02,00,7.80
2009,09,21,02,01,7.80
2009,09,21,02,02,7.80
2009,09,21,02,03,7.80
2009,09,21,02,04,7.80
2009,09,21,02,05,7.80
2009,09,21,02,06,7.80
2009,09,21,02,07,7.80
2009,09,21,02,08,7.80
2009,09,21,02,09,7.80
2009,09,21,02,10,7.80
2009,09,21,02,11,7.80
2009,09,21,02,12,7.80
2009,09,21,02,13,7.80
2009,09,21,02,14,7.80
2009,09,21,02,15,7.80
2009,09,21,02,16,7.80
2009,09,21,02,17,7.80
2009,09,21,02,18,7.80
2009,09,21,02,19,7.80
2009,09,21,02,20,7.80
2009,09,21,02,21,7.80
2009,09,21,02,22,7.80
2009,09,21,02,23,7.80
2009,09,21,02,24,7.80
2009,09,21,02,25,7.80
2009,09,21,02,26,7.80
2009,09,21,02,27,7.80
2009,09,21,02,28,7.80
2009,09,21,02,29,7.80
2009,09,21,02,30,7.80
2009,09,21,02,31,7.80
2009,09,21,02,32,7.80
2009,09,21,02,33,7.80
2009,09,21,02,34,7.80
2009,09,21,02,35,7.80
2009,09,21,02,36,7.80
2009,09,21,02,37,7.80
2009,09,21,02,38,7.80
2009,09,21,02,39,7.80
2009,09,21,02,40,7.80
2009,09,21,02,41,7.80
2009,09,21,02,42,7.80
2009,09,21,02,43,7.80
2009,09,21,02,44,7.80
2009,09,21,02,45,7.80
2009,09,21,02,46,7.80
2009,09,21,02,47,7.80
2009,09,21,02,48,7.80
2009,09,21,02,49,7.80
2009,09,21,02,50,7.80
2009,09,21,02,51,7.80
2009,09,21,02,52,7.80
2009,09,21,02,53,7.80
2009,09,21,02,54,7.80
2009,09,21,02,55,7.80
2009,09,21,02,56,7.80
2009,09,21,02,57,7.80
2009,09,21,02,58,7.80
2009,09,21,02,59,7.80
2009,09,21,03,00,7.80
2009,09,21,03,01,7.80
2009,09,21,03,02,7.80
2009,09,21,03,03,7.80
2009,09,21,03,04,7.80
2009,09,21,03,05,7.80
2009,09,21,03,06,7.80
2009,09,21,03,07,7.80
2009,09,21,03,08,7.80
2009,09,21,03,09,7.80
2009,09,21,03,10,7.80
2009,09,21,03,11,7.80
2009,09,21,03,12,7.80
2009,09,21,03,13,7.90
2009,09,21,03,14,7.90
2009,09,21,03,15,7.90
2009,09,21,03,16,7.90
2009,09,21,03,17,7.90
2009,09,21,03,18,7.90
2009,09,21,03,19,7.90
2009,09,21,03,20,7.90
2009,09,21,03,21,7.90
2009,09,21,03,22,7.90
2009,09,21,03,23,7.90
2009,09,21,03,24,7.90
2009,09,21,03,25,7.90
2009,09,21,03,26,7.90
2009,09,21,03,27,7.80
2009,09,21,03,28,7.80
2009,09,21,03,29,7.80
2009,09,21,03,30,7.80
2009,09,21,03,31,7.80
2009,09,21,03,32,7.80
2009,09,21,03,33,7.80
2009,09,21,03,34,7.80
2009,09,21,03,35,7.80
2009,09,21,03,36,7.80
2009,09,21,03,37,7.80
2009,09,21,03,38,7.80
2009,09,21,03,39,7.80
2009,09,21,03,40,7.80
2009,09,21,03,41,7.90
2009,09,21,03,42,7.90
2009,09,21,03,43,7.90
2009,09,21,03,44,7.90
2009,09,21,03,45,7.90
2009,09,21,03,46,7.90
2009,09,21,03,47,7.90
2009,09,21,03,48,7.90
2009,09,21,03,49,7.90
2009,09,21,03,50,7.90
2009,09,21,03,51,7.90
2009,09,21,03,52,7.90
2009,09,21,03,53,7.90
2009,09,21,03,54,7.90
2009,09,21,03,55,7.90
2009,09,21,03,56,7.80
2009,09,21,03,57,7.80
2009,09,21,03,58,7.80
2009,09,21,03,59,7.80
2009,09,21,04,00,7.80
2009,09,21,04,01,7.80
2009,09,21,04,02,7.80
2009,09,21,04,03,7.80
2009,09,21,04,04,7.80
2009,09,21,04,05,7.80
2009,09,21,04,06,7.80
2009,09,21,04,07,7.80
2009,09,21,04,08,7.80
2009,09,21,04,09,7.80
2009,09,21,04,10,7.80
2009,09,21,04,11,7.80
2009,09,21,04,12,7.80
2009,09,21,04,13,7.80
2009,09,21,04,14,7.80
2009,09,21,04,15,7.80
2009,09,21,04,16,7.80
2009,09,21,04,17,7.80
2009,09,21,04,18,7.80
2009,09,21,04,19,7.80
2009,09,21,04,20,7.80
2009,09,21,04,21,7.80
2009,09,21,04,22,7.80
2009,09,21,04,23,7.80
2009,09,21,04,24,7.80
2009,09,21,04,25,7.80
2009,09,21,04,26,7.80
2009,09,21,04,27,7.80
2009,09,21,04,28,7.80
2009,09,21,04,29,7.80
2009,09,21,04,30,7.80
2009,09,21,04,31,7.80
2009,09,21,04,32,7.80
2009,09,21,04,33,7.80
2009,09,21,04,34,7.80
2009,09,21,04,35,7.80
2009,09,21,04,36,7.80
2009,09,21,04,37,7.80
2009,09,21,04,38,7.80
2009,09,21,04,39,7.80
2009,09,21,04,40,7.80
2009,09,21,04,41,7.80
2009,09,21,04,42,7.80
2009,09,21,04,43,7.80
2009,09,21,04,44,7.80
2009,09,21,04,45,7.70
2009,09,21,04,46,7.70
2009,09,21,04,47,7.70
2009,09,21,04,48,7.70
2009,09,21,04,49,7.70
2009,09,21,04,50,7.70
2009,09,21,04,51,7.70
2009,09,21,04,52,7.70
2009,09,21,04,53,7.70
2009,09,21,04,54,7.70
2009,09,21,04,55,7.70
2009,09,21,04,56,7.70
2009,09,21,04,57,7.70
2009,09,21,04,58,7.70
2009,09,21,04,59,7.70
2009,09,21,05,00,7.60
2009,09,21,05,01,7.60
2009,09,21,05,02,7.60
2009,09,21,05,03,7.60
2009,09,21,05,04,7.60
2009,09,21,05,05,7.60
2009,09,21,05,06,7.60
2009,09,21,05,07,7.60
2009,09,21,05,08,7.60
2009,09,21,05,09,7.60
2009,09,21,05,10,7.60
2009,09,21,05,11,7.60
2009,09,21,05,12,7.50
2009,09,21,05,13,7.50
2009,09,21,05,14,7.50
2009,09,21,05,15,7.50
2009,09,21,05,16,7.50
2009,09,21,05,17,7.50
2009,09,21,05,18,7.50
2009,09,21,05,19,7.50
2009,09,21,05,20,7.50
2009,09,21,05,21,7.50
2009,09,21,05,22,7.50
2009,09,21,05,23,7.50
2009,09,21,05,24,7.50
2009,09,21,05,25,7.50
2009,09,21,05,26,7.50
2009,09,21,05,27,7.50
2009,09,21,05,28,7.50
2009,09,21,05,29,7.50
2009,09,21,05,30,7.50
2009,09,21,05,31,7.50
2009,09,21,05,32,7.50
2009,09,21,05,33,7.50
2009,09,21,05,34,7.40
2009,09,21,05,35,7.40
2009,09,21,05,36,7.40
2009,09,21,05,37,7.40
2009,09,21,05,38,7.40
2009,09,21,05,39,7.40
2009,09,21,05,40,7.40
2009,09,21,05,41,7.40
2009,09,21,05,42,7.40
2009,09,21,05,43,7.40
2009,09,21,05,44,7.40
2009,09,21,05,45,7.40
2009,09,21,05,46,7.40
2009,09,21,05,47,7.40
2009,09,21,05,48,7.40
2009,09,21,05,49,7.40
2009,09,21,05,50,7.40
2009,09,21,05,51,7.50
2009,09,21,05,52,7.50
2009,09,21,05,53,7.50
2009,09,21,05,54,7.50
2009,09,21,05,55,7.50
2009,09,21,05,56,7.40
2009,09,21,05,57,7.40
2009,09,21,05,58,7.40
2009,09,21,05,59,7.40
2009,09,21,06,00,7.40
2009,09,21,06,01,7.30
2009,09,21,06,02,7.30
2009,09,21,06,03,7.30
2009,09,21,06,04,7.30
2009,09,21,06,05,7.30
2009,09,21,06,06,7.30
2009,09,21,06,07,7.30
2009,09,21,06,08,7.30
2009,09,21,06,09,7.30
2009,09,21,06,10,7.30
2009,09,21,06,11,7.30
2009,09,21,06,12,7.30
2009,09,21,06,13,7.30
2009,09,21,06,14,7.30
2009,09,21,06,15,7.30
2009,09,21,06,16,7.30
2009,09,21,06,17,7.30
2009,09,21,06,18,7.30
2009,09,21,06,19,7.30
2009,09,21,06,20,7.30
2009,09,21,06,21,7.30
2009,09,21,06,22,7.30
2009,09,21,06,23,7.30
2009,09,21,06,24,7.30
2009,09,21,06,25,7.30
2009,09,21,06,26,7.30
2009,09,21,06,27,7.30
2009,09,21,06,28,7.30
2009,09,21,06,29,7.30
2009,09,21,06,30,7.30
2009,09,21,06,31,7.30
2009,09,21,06,32,7.30
2009,09,21,06,33,7.30
2009,09,21,06,34,7.30
2009,09,21,06,35,7.30
2009,09,21,06,36,7.30
2009,09,21,06,37,7.30
2009,09,21,06,38,7.30
2009,09,21,06,39,7.30
2009,09,21,06,40,7.30
2009,09,21,06,41,7.30
2009,09,21,06,42,7.30
2009,09,21,06,43,7.30
2009,09,21,06,44,7.30
2009,09,21,06,45,7.30
2009,09,21,06,46,7.30
2009,09,21,06,47,7.30
2009,09,21,06,48,7.30
2009,09,21,06,49,7.30
2009,09,21,06,50,7.30
2009,09,21,06,51,7.30
2009,09,21,06,52,7.30
2009,09,21,06,53,7.30
2009,09,21,06,54,7.30
2009,09,21,06,55,7.30
2009,09,21,06,56,7.30
2009,09,21,06,57,7.30
2009,09,21,06,58,7.30
2009,09,21,06,59,7.30
2009,09,21,07,00,7.30
2009,09,21,07,01,7.30
2009,09,21,07,02,7.30
2009,09,21,07,03,7.30
2009,09,21,07,04,7.30
2009,09,21,07,05,7.30
2009,09,21,07,06,7.30
2009,09,21,07,07,7.30
2009,09,21,07,08,7.30
2009,09,21,07,09,7.30
2009,09,21,07,10,7.30
2009,09,21,07,11,7.30
2009,09,21,07,12,7.30
2009,09,21,07,13,7.30
2009,09,21,07,14,7.40
2009,09,21,07,15,7.40
2009,09,21,07,16,7.40
2009,09,21,07,17,7.40
2009,09,21,07,18,7.40
2009,09,21,07,19,7.40
2009,09,21,07,20,7.40
2009,09,21,07,21,7.40
2009,09,21,07,22,7.40
2009,09,21,07,23,7.40
2009,09,21,07,24,7.40
2009,09,21,07,25,7.40
2009,09,21,07,26,7.40
2009,09,21,07,27,7.40
2009,09,21,07,28,7.40
2009,09,21,07,29,7.40
2009,09,21,07,30,7.40
2009,09,21,07,31,7.40
2009,09,21,07,32,7.40
2009,09,21,07,33,7.40
2009,09,21,07,34,7.40
2009,09,21,07,35,7.50
2009,09,21,07,36,7.50
2009,09,21,07,37,7.50
2009,09,21,07,38,7.50
2009,09,21,07,39,7.50
2009,09,21,07,40,7.50
2009,09,21,07,41,7.50
2009,09,21,07,42,7.50
2009,09,21,07,43,7.50
2009,09,21,07,44,7.50
2009,09,21,07,45,7.50
2009,09,21,07,46,7.50
2009,09,21,07,47,7.50
2009,09,21,07,48,7.50
2009,09,21,07,49,7.50
2009,09,21,07,50,7.60
2009,09,21,07,51,7.60
2009,09,21,07,52,7.60
2009,09,21,07,53,7.60
2009,09,21,07,54,7.60
2009,09,21,07,55,7.60
2009,09,21,07,56,7.70
2009,09,21,07,57,7.70
2009,09,21,07,58,7.70
2009,09,21,07,59,7.70
2009,09,21,08,00,7.70
2009,09,21,08,01,7.80
2009,09,21,08,02,7.80
2009,09,21,08,03,7.80
2009,09,21,08,04,7.80
2009,09,21,08,05,7.80
2009,09,21,08,06,7.80
2009,09,21,08,07,7.90
2009,09,21,08,08,7.90
2009,09,21,08,09,7.90
2009,09,21,08,10,7.90
2009,09,21,08,11,8.00
2009,09,21,08,12,8.00
2009,09,21,08,13,8.00
2009,09,21,08,14,8.10
2009,09,21,08,15,8.10
2009,09,21,08,16,8.10
2009,09,21,08,17,8.20
2009,09,21,08,18,8.20
2009,09,21,08,19,8.20
2009,09,21,08,20,8.20
2009,09,21,08,21,8.30
2009,09,21,08,22,8.30
2009,09,21,08,23,8.30
2009,09,21,08,24,8.40
2009,09,21,08,25,8.40
2009,09,21,08,26,8.50
2009,09,21,08,27,8.60
2009,09,21,08,28,8.60
2009,09,21,08,29,8.70
2009,09,21,08,30,8.80
2009,09,21,08,31,8.90
2009,09,21,08,32,9.00
2009,09,21,08,33,9.10
2009,09,21,08,34,9.20
2009,09,21,08,35,9.30
2009,09,21,08,36,9.50
2009,09,21,08,37,9.60
2009,09,21,08,38,9.70
2009,09,21,08,39,9.90
2009,09,21,08,40,10.10
2009,09,21,08,41,10.30
2009,09,21,08,42,10.40
2009,09,21,08,43,10.60
2009,09,21,08,44,10.70
2009,09,21,08,45,10.90
2009,09,21,08,46,11.00
2009,09,21,08,47,11.20
2009,09,21,08,48,11.30
2009,09,21,08,49,11.40
2009,09,21,08,50,11.60
2009,09,21,08,51,11.70
2009,09,21,08,52,11.80
2009,09,21,08,53,11.90
2009,09,21,08,54,12.00
2009,09,21,08,55,12.10
2009,09,21,08,56,12.20
2009,09,21,08,57,12.30
2009,09,21,08,58,12.30
2009,09,21,08,59,12.40
2009,09,21,09,00,12.50
2009,09,21,09,01,12.60
2009,09,21,09,02,12.70
2009,09,21,09,03,12.80
2009,09,21,09,04,12.80
2009,09,21,09,05,13.00
2009,09,21,09,06,13.10
2009,09,21,09,07,13.10
2009,09,21,09,08,13.20
2009,09,21,09,09,13.30
2009,09,21,09,10,13.30
2009,09,21,09,11,13.30
2009,09,21,09,12,13.40
2009,09,21,09,13,13.40
2009,09,21,09,14,13.50
2009,09,21,09,15,13.50
2009,09,21,09,16,13.50
2009,09,21,09,17,13.60
2009,09,21,09,18,13.60
2009,09,21,09,19,13.60
2009,09,21,09,20,13.70
2009,09,21,09,21,13.70
2009,09,21,09,22,13.70
2009,09,21,09,23,13.70
2009,09,21,09,24,13.70
2009,09,21,09,25,13.70
2009,09,21,09,26,13.70
2009,09,21,09,27,13.70
2009,09,21,09,28,13.70
2009,09,21,09,29,13.70
2009,09,21,09,30,13.70
2009,09,21,09,31,13.80
2009,09,21,09,32,13.80
2009,09,21,09,33,13.80
2009,09,21,09,34,13.80
2009,09,21,09,35,13.80
2009,09,21,09,36,13.90
2009,09,21,09,37,13.90
2009,09,21,09,38,13.90
2009,09,21,09,39,13.90
2009,09,21,09,40,14.00
2009,09,21,09,41,14.00
2009,09,21,09,42,14.00
2009,09,21,09,43,14.00
2009,09,21,09,44,14.00
2009,09,21,09,45,14.00
2009,09,21,09,46,14.10
2009,09,21,09,47,14.10
2009,09,21,09,48,14.10
2009,09,21,09,49,14.20
2009,09,21,09,50,14.20
2009,09,21,09,51,14.20
2009,09,21,09,52,14.20
2009,09,21,09,53,14.20
2009,09,21,09,54,14.20
2009,09,21,09,55,14.30
2009,09,21,09,56,14.30
2009,09,21,09,57,14.30
2009,09,21,09,58,14.30
2009,09,21,09,59,14.40
2009,09,21,10,00,14.40
2009,09,21,10,01,14.40
2009,09,21,10,02,14.50
2009,09,21,10,03,14.50
2009,09,21,10,04,14.50
2009,09,21,10,05,14.60
2009,09,21,10,06,14.60
2009,09,21,10,07,14.60
2009,09,21,10,08,14.70
2009,09,21,10,09,14.70
2009,09,21,10,10,14.70
2009,09,21,10,11,14.80
2009,09,21,10,12,14.80
2009,09,21,10,13,14.80
2009,09,21,10,14,14.80
2009,09,21,10,15,14.80
2009,09,21,10,16,14.90
2009,09,21,10,17,14.90
2009,09,21,10,18,14.90
2009,09,21,10,19,14.90
2009,09,21,10,20,15.00
2009,09,21,10,21,15.00
2009,09,21,10,22,15.00
2009,09,21,10,23,15.00
2009,09,21,10,24,15.10
2009,09,21,10,25,15.10
2009,09,21,10,26,15.10
2009,09,21,10,27,15.10
2009,09,21,10,28,15.20
2009,09,21,10,29,15.20
2009,09,21,10,30,15.20
2009,09,21,10,31,15.20
2009,09,21,10,32,15.20
2009,09,21,10,33,15.30
2009,09,21,10,34,15.30
2009,09,21,10,35,15.30
2009,09,21,10,36,15.30
2009,09,21,10,37,15.30
2009,09,21,10,38,15.30
2009,09,21,10,39,15.30
2009,09,21,10,40,15.30
2009,09,21,10,41,15.30
2009,09,21,10,42,15.30
2009,09,21,10,43,15.30
2009,09,21,10,44,15.30
2009,09,21,10,45,15.30
2009,09,21,10,46,15.30
2009,09,21,10,47,15.30
2009,09,21,10,48,15.30
2009,09,21,10,49,15.30
2009,09,21,10,50,15.30
2009,09,21,10,51,15.30
2009,09,21,10,52,15.30
2009,09,21,10,53,15.40
2009,09,21,10,54,15.40
2009,09,21,10,55,15.40
2009,09,21,10,56,15.40
2009,09,21,10,57,15.40
2009,09,21,10,58,15.50
2009,09,21,10,59,15.50
2009,09,21,11,00,15.50
2009,09,21,11,01,15.50
2009,09,21,11,02,15.50
2009,09,21,11,03,15.50
2009,09,21,11,04,15.50
2009,09,21,11,05,15.50
2009,09,21,11,06,15.50
2009,09,21,11,07,15.60
2009,09,21,11,08,15.60
2009,09,21,11,09,15.60
2009,09,21,11,10,15.60
2009,09,21,11,11,15.70
2009,09,21,11,12,15.70
2009,09,21,11,13,15.70
2009,09,21,11,14,15.70
2009,09,21,11,15,15.70
2009,09,21,11,16,15.70
2009,09,21,11,17,15.80
2009,09,21,11,18,15.80
2009,09,21,11,19,15.80
2009,09,21,11,20,15.80
2009,09,21,11,21,15.80
2009,09,21,11,22,15.80
2009,09,21,11,23,15.80
2009,09,21,11,24,15.80
2009,09,21,11,25,15.80
2009,09,21,11,26,15.80
2009,09,21,11,27,15.90
2009,09,21,11,28,15.90
2009,09,21,11,29,15.90
2009,09,21,11,30,15.90
2009,09,21,11,31,15.90
2009,09,21,11,32,16.00
2009,09,21,11,33,16.10
2009,09,21,11,34,16.10
2009,09,21,11,35,16.10
2009,09,21,11,36,16.10
2009,09,21,11,37,16.10
2009,09,21,11,38,16.10
2009,09,21,11,39,16.10
2009,09,21,11,40,16.10
2009,09,21,11,41,16.10
2009,09,21,11,42,16.10
2009,09,21,11,43,16.10
2009,09,21,11,44,16.10
2009,09,21,11,45,16.10
2009,09,21,11,46,16.10
2009,09,21,11,47,16.20
2009,09,21,11,48,16.20
2009,09,21,11,49,16.20
2009,09,21,11,50,16.30
2009,09,21,11,51,16.30
2009,09,21,11,52,16.30
2009,09,21,11,53,16.30
2009,09,21,11,54,16.40
2009,09,21,11,55,16.40
2009,09,21,11,56,16.40
2009,09,21,11,57,16.40
2009,09,21,11,58,16.40
2009,09,21,11,59,16.60
2009,09,21,12,00,16.60
2009,09,21,12,01,16.60
2009,09,21,12,02,16.60
2009,09,21,12,03,16.70
2009,09,21,12,04,16.70
2009,09,21,12,05,16.70
2009,09,21,12,06,16.80
2009,09,21,12,07,16.80
2009,09,21,12,08,16.90
2009,09,21,12,09,16.90
2009,09,21,12,10,17.00
2009,09,21,12,11,17.00
2009,09,21,12,12,17.00
2009,09,21,12,13,17.10
2009,09,21,12,14,17.10
2009,09,21,12,15,17.10
2009,09,21,12,16,17.10
2009,09,21,12,17,17.10
2009,09,21,12,18,17.10
2009,09,21,12,19,17.10
2009,09,21,12,20,17.10
2009,09,21,12,21,17.10
2009,09,21,12,22,17.20
2009,09,21,12,23,17.20
2009,09,21,12,24,17.20
2009,09,21,12,25,17.20
2009,09,21,12,26,17.20
2009,09,21,12,27,17.30
2009,09,21,12,28,17.30
2009,09,21,12,29,17.30
2009,09,21,12,30,17.30
2009,09,21,12,31,17.30
2009,09,21,12,32,17.40
2009,09,21,12,33,17.40
2009,09,21,12,34,17.50
2009,09,21,12,35,17.50
2009,09,21,12,36,17.50
2009,09,21,12,37,17.50
2009,09,21,12,38,17.60
2009,09,21,12,39,17.60
2009,09,21,12,40,17.70
2009,09,21,12,41,17.70
2009,09,21,12,42,17.70
2009,09,21,12,43,17.70
2009,09,21,12,44,17.70
2009,09,21,12,45,17.80
2009,09,21,12,46,17.80
2009,09,21,12,47,17.80
2009,09,21,12,48,17.80
2009,09,21,12,49,17.90
2009,09,21,12,50,17.90
2009,09,21,12,51,17.90
2009,09,21,12,52,17.90
2009,09,21,12,53,18.00
2009,09,21,12,54,18.10
2009,09,21,12,55,18.10
2009,09,21,12,56,18.10
2009,09,21,12,57,18.10
2009,09,21,12,58,18.20
2009,09,21,12,59,18.20
2009,09,21,13,00,18.20
2009,09,21,13,01,18.20
2009,09,21,13,02,18.20
2009,09,21,13,03,18.20
2009,09,21,13,04,18.20
2009,09,21,13,05,18.20
2009,09,21,13,06,18.20
2009,09,21,13,07,18.20
2009,09,21,13,08,18.20
2009,09,21,13,09,18.10
2009,09,21,13,10,18.10
2009,09,21,13,11,18.10
2009,09,21,13,12,18.20
2009,09,21,13,13,18.20
2009,09,21,13,14,18.20
2009,09,21,13,15,18.20
2009,09,21,13,16,18.20
2009,09,21,13,17,18.30
2009,09,21,13,18,18.40
2009,09,21,13,19,18.40
2009,09,21,13,20,18.40
2009,09,21,13,21,18.40
2009,09,21,13,22,18.50
2009,09,21,13,23,18.50
2009,09,21,13,24,18.50
2009,09,21,13,25,18.60
2009,09,21,13,26,18.60
2009,09,21,13,27,18.60
2009,09,21,13,28,18.60
2009,09,21,13,29,18.70
2009,09,21,13,30,18.70
2009,09,21,13,31,18.80
2009,09,21,13,32,18.80
2009,09,21,13,33,18.80
2009,09,21,13,34,18.80
2009,09,21,13,35,18.80
2009,09,21,13,36,18.80
2009,09,21,13,37,18.80
2009,09,21,13,38,18.80
2009,09,21,13,39,18.80
2009,09,21,13,40,18.80
2009,09,21,13,41,18.80
2009,09,21,13,42,18.90
2009,09,21,13,43,18.90
2009,09,21,13,44,18.90
2009,09,21,13,45,18.90
2009,09,21,13,46,18.90
2009,09,21,13,47,18.90
2009,09,21,13,48,19.00
2009,09,21,13,49,19.10
2009,09,21,13,50,19.10
2009,09,21,13,51,19.10
2009,09,21,13,52,19.10
2009,09,21,13,53,19.20
2009,09,21,13,54,19.20
2009,09,21,13,55,19.20
2009,09,21,13,56,19.30
2009,09,21,13,57,19.30
2009,09,21,13,58,19.30
2009,09,21,13,59,19.30
2009,09,21,14,00,19.30
2009,09,21,14,01,19.30
2009,09,21,14,02,19.30
2009,09,21,14,03,19.30
2009,09,21,14,04,19.30
2009,09,21,14,05,19.40
2009,09,21,14,06,19.40
2009,09,21,14,07,19.40
2009,09,21,14,08,19.50
2009,09,21,14,09,19.50
2009,09,21,14,10,19.50
2009,09,21,14,11,19.50
2009,09,21,14,12,19.60
2009,09,21,14,13,19.60
2009,09,21,14,14,19.70
2009,09,21,14,15,19.70
2009,09,21,14,16,19.70
2009,09,21,14,17,19.80
2009,09,21,14,18,19.80
2009,09,21,14,19,19.80
2009,09,21,14,20,19.90
2009,09,21,14,21,19.90
2009,09,21,14,22,19.90
2009,09,21,14,23,19.90
2009,09,21,14,24,19.90
2009,09,21,14,25,19.90
2009,09,21,14,26,19.90
2009,09,21,14,27,20.10
2009,09,21,14,28,20.10
2009,09,21,14,29,20.20
2009,09,21,14,30,20.20
2009,09,21,14,31,20.20
2009,09,21,14,32,20.20
2009,09,21,14,33,20.20
2009,09,21,14,34,20.20
2009,09,21,14,35,20.20
2009,09,21,14,36,20.20
2009,09,21,14,37,20.20
2009,09,21,14,38,20.20
2009,09,21,14,39,20.10
2009,09,21,14,40,20.10
2009,09,21,14,41,19.90
2009,09,21,14,42,19.90
2009,09,21,14,43,19.90
2009,09,21,14,44,19.90
2009,09,21,14,45,19.90
2009,09,21,14,46,19.90
2009,09,21,14,47,20.00
2009,09,21,14,48,20.10
2009,09,21,14,49,20.10
2009,09,21,14,50,20.10
2009,09,21,14,51,20.10
2009,09,21,14,52,20.10
2009,09,21,14,53,20.00
2009,09,21,14,54,19.90
2009,09,21,14,55,19.90
2009,09,21,14,56,19.90
2009,09,21,14,57,19.90
2009,09,21,14,58,19.80
2009,09,21,14,59,19.80
2009,09,21,15,00,19.70
2009,09,21,15,01,19.70
2009,09,21,15,02,19.70
2009,09,21,15,03,19.60
2009,09,21,15,04,19.60
2009,09,21,15,05,19.60
2009,09,21,15,06,19.60
2009,09,21,15,07,19.60
2009,09,21,15,08,19.60
2009,09,21,15,09,19.60
2009,09,21,15,10,19.60
2009,09,21,15,11,19.60
2009,09,21,15,12,19.60
2009,09,21,15,13,19.60
2009,09,21,15,14,19.50
2009,09,21,15,15,19.50
2009,09,21,15,16,19.50
2009,09,21,15,17,19.50
2009,09,21,15,18,19.50
2009,09,21,15,19,19.50
2009,09,21,15,20,19.60
2009,09,21,15,21,19.60
2009,09,21,15,22,19.50
2009,09,21,15,23,19.50
2009,09,21,15,24,19.50
2009,09,21,15,25,19.50
2009,09,21,15,26,19.50
2009,09,21,15,27,19.60
2009,09,21,15,28,19.60
2009,09,21,15,29,19.60
2009,09,21,15,30,19.60
2009,09,21,15,31,19.50
2009,09,21,15,32,19.50
2009,09,21,15,33,19.40
2009,09,21,15,34,19.40
2009,09,21,15,35,19.40
2009,09,21,15,36,19.40
2009,09,21,15,37,19.40
2009,09,21,15,38,19.30
2009,09,21,15,39,19.30
2009,09,21,15,40,19.30
2009,09,21,15,41,19.30
2009,09,21,15,42,19.30
2009,09,21,15,43,19.30
2009,09,21,15,44,19.30
2009,09,21,15,45,19.30
2009,09,21,15,46,19.30
2009,09,21,15,47,19.30
2009,09,21,15,48,19.30
2009,09,21,15,49,19.30
2009,09,21,15,50,19.30
2009,09,21,15,51,19.30
2009,09,21,15,52,19.30
2009,09,21,15,53,19.30
2009,09,21,15,54,19.30
2009,09,21,15,55,19.30
2009,09,21,15,56,19.40
2009,09,21,15,57,19.40
2009,09,21,15,58,19.40
2009,09,21,15,59,19.40
2009,09,21,16,00,19.50
2009,09,21,16,01,19.50
2009,09,21,16,02,19.50
2009,09,21,16,03,19.50
2009,09,21,16,04,19.60
2009,09,21,16,05,19.60
2009,09,21,16,06,19.60
2009,09,21,16,07,19.70
2009,09,21,16,08,19.70
2009,09,21,16,09,19.70
2009,09,21,16,10,19.80
2009,09,21,16,11,19.80
2009,09,21,16,12,19.80
2009,09,21,16,13,19.80
2009,09,21,16,14,19.80
2009,09,21,16,15,19.90
2009,09,21,16,16,19.90
2009,09,21,16,17,19.90
2009,09,21,16,18,19.90
2009,09,21,16,19,19.90
2009,09,21,16,20,19.90
2009,09,21,16,21,19.90
2009,09,21,16,22,19.90
2009,09,21,16,23,19.90
2009,09,21,16,24,19.90
2009,09,21,16,25,19.90
2009,09,21,16,26,19.90
2009,09,21,16,27,19.90
2009,09,21,16,28,19.90
2009,09,21,16,29,19.90
2009,09,21,16,30,19.90
2009,09,21,16,31,19.90
2009,09,21,16,32,19.90
2009,09,21,16,33,19.90
2009,09,21,16,34,19.90
2009,09,21,16,35,19.90
2009,09,21,16,36,19.90
2009,09,21,16,37,19.90
2009,09,21,16,38,19.90
2009,09,21,16,39,19.90
2009,09,21,16,40,19.90
2009,09,21,16,41,19.90
2009,09,21,16,42,19.90
2009,09,21,16,43,19.90
2009,09,21,16,44,19.90
2009,09,21,16,45,19.90
2009,09,21,16,46,19.90
2009,09,21,16,47,19.90
2009,09,21,16,48,19.90
2009,09,21,16,49,19.90
2009,09,21,16,50,19.90
2009,09,21,16,51,19.90
2009,09,21,16,52,19.90
2009,09,21,16,53,19.90
2009,09,21,16,54,19.90
2009,09,21,16,55,19.90
2009,09,21,16,56,19.90
2009,09,21,16,57,19.90
2009,09,21,16,58,19.90
2009,09,21,16,59,19.90
2009,09,21,17,00,19.90
2009,09,21,17,01,19.90
2009,09,21,17,02,19.90
2009,09,21,17,03,19.80
2009,09,21,17,04,19.80
2009,09,21,17,05,19.80
2009,09,21,17,06,19.80
2009,09,21,17,07,19.80
2009,09,21,17,08,19.80
2009,09,21,17,09,19.70
2009,09,21,17,10,19.70
2009,09,21,17,11,19.70
2009,09,21,17,12,19.70
2009,09,21,17,13,19.70
2009,09,21,17,14,19.70
2009,09,21,17,15,19.70
2009,09,21,17,16,19.70
2009,09,21,17,17,19.60
2009,09,21,17,18,19.60
2009,09,21,17,19,19.60
2009,09,21,17,20,19.60
2009,09,21,17,21,19.60
2009,09,21,17,22,19.60
2009,09,21,17,23,19.50
2009,09,21,17,24,19.50
2009,09,21,17,25,19.50
2009,09,21,17,26,19.50
2009,09,21,17,27,19.50
2009,09,21,17,28,19.50
2009,09,21,17,29,19.50
2009,09,21,17,30,19.50
2009,09,21,17,31,19.50
2009,09,21,17,32,19.50
2009,09,21,17,33,19.50
2009,09,21,17,34,19.50
2009,09,21,17,35,19.50
2009,09,21,17,36,19.50
2009,09,21,17,37,19.40
2009,09,21,17,38,19.40
2009,09,21,17,39,19.40
2009,09,21,17,40,19.40
2009,09,21,17,41,19.40
2009,09,21,17,42,19.40